Time,TemperatureF,DewpointF,PressureIn,WindDirection,WindDirectionDegrees,WindSpeedMPH,WindSpeedGustMPH,Humidity,HourlyPrecipIn,Conditions,Clouds,dailyrainin,SoftwareType,DateUTC
2013-01-18 00:09:00,20.5,12.0,30.29,WSW,248,0.0,0.0,69,0.00,,,0.00,WUHU21623XXSP,2013-01-18 05:09:00,
2013-01-18 01:09:00,20.5,12.6,30.31,SW,225,0.7,0.7,71,0.00,,,0.00,WUHU21623XXSP,2013-01-18 06:09:00,
2013-01-18 02:09:00,20.5,12.6,30.34,SW,225,0.0,0.0,71,0.00,,,0.00,WUHU21623XXSP,2013-01-18 07:09:00,
2013-01-18 03:09:00,20.5,12.6,30.36,SW,225,0.7,0.7,71,0.00,,,0.00,WUHU21623XXSP,2013-01-18 08:09:00,
2013-01-18 04:09:00,19.9,12.7,30.35,SW,225,3.1,3.1,73,0.00,,,0.00,WUHU21623XXSP,2013-01-18 09:09:00,
2013-01-18 05:09:00,19.6,12.4,30.34,SSW,203,0.0,0.0,73,0.00,,,0.00,WUHU21623XXSP,2013-01-18 10:09:00,
2013-01-18 06:09:00,19.2,12.3,30.35,SSW,203,0.0,0.0,74,0.00,,,0.00,WUHU21623XXSP,2013-01-18 11:09:00,
2013-01-18 07:09:00,19.6,13.0,30.36,SSW,203,0.0,0.0,75,0.00,,,0.00,WUHU21623XXSP,2013-01-18 12:09:00,
2013-01-18 08:09:00,20.8,14.2,30.36,SSW,203,0.0,0.0,75,0.00,,,0.00,WUHU21623XXSP,2013-01-18 13:09:00,
2013-01-18 09:09:00,22.8,15.8,30.37,SSW,203,0.0,0.0,74,0.00,,,0.00,WUHU21623XXSP,2013-01-18 14:09:00,
2013-01-18 10:09:00,26.2,17.8,30.38,SW,225,0.0,0.0,70,0.00,,,0.00,WUHU21623XXSP,2013-01-18 15:09:00,
2013-01-18 11:09:00,28.9,18.7,30.36,SW,225,0.2,0.2,65,0.00,,,0.00,WUHU21623XXSP,2013-01-18 16:09:00,
2013-01-18 12:09:00,31.1,20.0,30.32,SSW,203,1.3,1.3,63,0.00,,,0.00,WUHU21623XXSP,2013-01-18 17:09:00,
2013-01-18 13:02:00,32.7,21.1,30.28,ESE,112,0.0,0.0,62,0.00,,,0.00,WUHU21623XXSP,2013-01-18 18:02:00,
2013-01-18 13:07:00,32.7,20.8,30.28,NE,45,0.0,0.0,62,0.00,,,0.00,WUHU21623XXSP,2013-01-18 18:07:00,
2013-01-18 13:12:00,32.7,21.1,30.27,ENE,67,0.0,0.0,62,0.00,,,0.00,WUHU21623XXSP,2013-01-18 18:12:00,
2013-01-18 13:17:00,32.9,21.3,30.27,NE,45,0.4,0.4,62,0.00,,,0.00,WUHU21623XXSP,2013-01-18 18:17:00,
2013-01-18 13:31:00,33.1,21.1,30.25,ENE,67,0.0,0.0,61,0.00,,,0.00,WUHU21623XXSP,2013-01-18 18:31:00,
2013-01-18 13:36:00,33.3,21.4,30.25,ENE,67,0.0,0.0,61,0.00,,,0.00,WUHU21623XXSP,2013-01-18 18:36:00,
2013-01-18 13:41:00,33.3,21.3,30.25,WSW,247,0.0,0.0,61,0.00,,,0.00,WUHU21623XXSP,2013-01-18 18:41:00,
2013-01-18 13:47:00,33.6,21.6,30.25,NE,45,0.0,0.0,60,0.00,,,0.00,WUHU21623XXSP,2013-01-18 18:47:00,
2013-01-18 13:58:00,33.6,21.2,30.25,NNW,337,0.0,0.0,60,0.00,,,0.00,WUHU21623XXSP,2013-01-18 18:58:00,
2013-01-18 14:03:00,34.0,21.1,30.24,West,270,1.3,1.3,59,0.00,,,0.00,WUHU21623XXSP,2013-01-18 19:03:00,
2013-01-18 14:11:00,34.7,21.9,30.24,SSW,202,0.2,1.3,59,0.00,,,0.00,WUHU21623XXSP,2013-01-18 19:11:00,
2013-01-18 14:16:00,34.7,21.4,30.24,East,90,0.0,0.2,58,0.00,,,0.00,WUHU21623XXSP,2013-01-18 19:16:00,
2013-01-18 14:21:00,34.9,21.6,30.23,ENE,67,0.7,0.7,58,0.00,,,0.00,WUHU21623XXSP,2013-01-18 19:21:00,
2013-01-18 14:26:00,35.2,22.0,30.23,NNW,337,0.0,0.7,58,0.00,,,0.00,WUHU21623XXSP,2013-01-18 19:26:00,
2013-01-18 14:31:00,35.4,22.1,30.23,SSW,202,0.0,0.0,58,0.00,,,0.00,WUHU21623XXSP,2013-01-18 19:31:00,
2013-01-18 14:36:00,35.4,22.1,30.23,SSE,157,0.0,0.0,58,0.00,,,0.00,WUHU21623XXSP,2013-01-18 19:36:00,
2013-01-18 14:41:00,35.6,21.7,30.22,ENE,67,1.3,1.3,57,0.00,,,0.00,WUHU21623XXSP,2013-01-18 19:41:00,
2013-01-18 14:46:00,35.8,21.9,30.22,NW,315,0.0,1.3,57,0.00,,,0.00,WUHU21623XXSP,2013-01-18 19:46:00,
2013-01-18 14:51:00,35.8,22.0,30.21,ENE,67,6.0,6.0,57,0.00,,,0.00,WUHU21623XXSP,2013-01-18 19:51:00,
2013-01-18 14:56:00,35.8,21.6,30.21,SW,225,0.0,6.0,56,0.00,,,0.00,WUHU21623XXSP,2013-01-18 19:56:00,
2013-01-18 15:01:00,35.8,21.6,30.20,NE,45,0.4,0.4,56,0.00,,,0.00,WUHU21623XXSP,2013-01-18 20:01:00,
2013-01-18 15:06:00,35.8,21.6,30.20,SSW,202,0.0,0.4,56,0.00,,,0.00,WUHU21623XXSP,2013-01-18 20:06:00,
2013-01-18 15:11:00,35.6,21.5,30.20,SW,225,0.0,0.0,56,0.00,,,0.00,WUHU21623XXSP,2013-01-18 20:11:00,
2013-01-18 15:16:00,35.4,21.7,30.19,ENE,67,0.0,0.0,57,0.00,,,0.00,WUHU21623XXSP,2013-01-18 20:16:00,
2013-01-18 15:21:00,35.4,21.7,30.19,WSW,247,0.0,0.2,58,0.00,,,0.00,WUHU21623XXSP,2013-01-18 20:21:00,
2013-01-18 15:30:00,35.4,21.3,30.19,NW,315,0.0,0.0,56,0.00,,,0.00,WUHU21623XXSP,2013-01-18 20:30:00,
2013-01-18 15:35:00,35.4,21.3,30.18,NW,315,0.0,0.0,56,0.00,,,0.00,WUHU21623XXSP,2013-01-18 20:35:00,
2013-01-18 15:40:00,35.4,21.3,30.18,West,270,0.0,0.0,56,0.00,,,0.00,WUHU21623XXSP,2013-01-18 20:40:00,
2013-01-18 15:45:00,35.4,21.3,30.18,SW,225,0.0,0.0,56,0.00,,,0.00,WUHU21623XXSP,2013-01-18 20:45:00,
2013-01-18 15:50:00,35.4,20.8,30.18,ENE,67,0.0,0.0,55,0.00,,,0.00,WUHU21623XXSP,2013-01-18 20:50:00,
2013-01-18 15:55:00,35.4,21.3,30.17,SW,225,0.0,0.0,56,0.00,,,0.00,WUHU21623XXSP,2013-01-18 20:55:00,
2013-01-18 16:02:00,35.4,20.8,30.17,West,270,1.6,1.6,55,0.00,,,0.00,WUHU21623XXSP,2013-01-18 21:02:00,
2013-01-18 16:07:00,35.6,20.4,30.16,ENE,67,2.5,2.5,54,0.00,,,0.00,WUHU21623XXSP,2013-01-18 21:07:00,
2013-01-18 16:12:00,35.8,21.2,30.16,West,270,0.0,2.5,55,0.00,,,0.00,WUHU21623XXSP,2013-01-18 21:12:00,
2013-01-18 16:17:00,35.8,21.6,30.16,SW,225,0.0,0.0,56,0.00,,,0.00,WUHU21623XXSP,2013-01-18 21:17:00,
2013-01-18 16:22:00,35.8,21.6,30.16,NW,315,0.0,0.0,56,0.00,,,0.00,WUHU21623XXSP,2013-01-18 21:22:00,
2013-01-18 16:28:00,35.8,20.8,30.16,NW,315,0.0,0.0,54,0.00,,,0.00,WUHU21623XXSP,2013-01-18 21:28:00,
2013-01-18 16:33:00,35.8,20.8,30.16,NW,315,0.0,0.0,54,0.00,,,0.00,WUHU21623XXSP,2013-01-18 21:33:00,
2013-01-18 16:38:00,35.4,20.4,30.15,SSW,202,0.2,0.2,54,0.00,,,0.00,WUHU21623XXSP,2013-01-18 21:38:00,
2013-01-18 16:43:00,35.6,20.6,30.15,WSW,247,0.0,0.2,54,0.00,,,0.00,WUHU21623XXSP,2013-01-18 21:43:00,
2013-01-18 16:48:00,35.4,20.4,30.15,SSW,202,0.0,0.0,55,0.00,,,0.00,WUHU21623XXSP,2013-01-18 21:48:00,
2013-01-18 16:53:00,35.4,20.4,30.15,NW,315,0.0,0.0,54,0.00,,,0.00,WUHU21623XXSP,2013-01-18 21:53:00,
2013-01-18 16:58:00,35.4,20.8,30.15,WNW,292,0.0,0.0,55,0.00,,,0.00,WUHU21623XXSP,2013-01-18 21:58:00,
2013-01-18 17:03:00,35.2,20.7,30.14,West,270,0.0,0.0,55,0.00,,,0.00,WUHU21623XXSP,2013-01-18 22:03:00,
2013-01-18 17:08:00,35.2,20.7,30.14,NW,315,0.0,0.0,55,0.00,,,0.00,WUHU21623XXSP,2013-01-18 22:08:00,
2013-01-18 17:13:00,35.2,21.1,30.14,WNW,292,0.0,0.0,56,0.00,,,0.00,WUHU21623XXSP,2013-01-18 22:13:00,
2013-01-18 17:18:00,34.9,20.7,30.13,NNE,22,0.0,0.0,56,0.00,,,0.00,WUHU21623XXSP,2013-01-18 22:18:00,
2013-01-18 17:25:00,34.9,20.7,30.13,SSW,202,1.1,1.1,56,0.00,,,0.00,WUHU21623XXSP,2013-01-18 22:25:00,
2013-01-18 17:32:00,34.7,20.6,30.13,North,0,0.0,1.1,56,0.00,,,0.00,WUHU21623XXSP,2013-01-18 22:32:00,
2013-01-18 17:37:00,34.5,20.4,30.12,West,270,0.9,0.9,56,0.00,,,0.00,WUHU21623XXSP,2013-01-18 22:37:00,
2013-01-18 17:42:00,34.3,20.6,30.13,NW,315,0.0,0.9,57,0.00,,,0.00,WUHU21623XXSP,2013-01-18 22:42:00,
2013-01-18 17:47:00,34.3,20.6,30.12,NNW,337,0.0,0.0,57,0.00,,,0.00,WUHU21623XXSP,2013-01-18 22:47:00,
2013-01-18 17:52:00,34.3,21.1,30.12,NW,315,0.0,0.0,58,0.00,,,0.00,WUHU21623XXSP,2013-01-18 22:52:00,
2013-01-18 17:57:00,34.2,20.9,30.12,West,270,0.0,1.8,58,0.00,,,0.00,WUHU21623XXSP,2013-01-18 22:57:00,
2013-01-18 18:02:00,34.0,21.1,30.12,South,180,1.1,1.8,59,0.00,,,0.00,WUHU21623XXSP,2013-01-18 23:02:00,
2013-01-18 18:07:00,34.0,21.1,30.12,South,180,1.1,1.1,59,0.00,,,0.00,WUHU21623XXSP,2013-01-18 23:07:00,
2013-01-18 18:08:00,34.0,21.1,30.12,West,270,0.0,1.1,59,0.00,,,0.00,WUHU21623XXSP,2013-01-18 23:08:00,
2013-01-18 18:09:00,34.0,21.2,30.12,North,0,0.0,1.1,59,0.00,,,0.00,WUHU21623XXSP,2013-01-18 23:09:00,
2013-01-18 18:21:00,33.6,21.2,30.12,NW,315,0.0,0.0,60,0.00,,,0.00,WUHU21623XXSP,2013-01-18 23:21:00,
2013-01-18 18:26:00,33.6,21.2,30.12,NW,315,0.0,0.0,60,0.00,,,0.00,WUHU21623XXSP,2013-01-18 23:26:00,
2013-01-18 18:31:00,33.6,21.2,30.12,WNW,292,0.0,0.0,60,0.00,,,0.00,WUHU21623XXSP,2013-01-18 23:31:00,
2013-01-18 18:36:00,33.6,21.2,30.11,NNW,337,0.0,1.8,60,0.00,,,0.00,WUHU21623XXSP,2013-01-18 23:36:00,
2013-01-18 18:41:00,33.8,21.4,30.11,North,0,0.0,1.8,60,0.00,,,0.00,WUHU21623XXSP,2013-01-18 23:41:00,
2013-01-18 18:47:00,33.6,21.6,30.11,SW,225,0.4,0.4,61,0.00,,,0.00,WUHU21623XXSP,2013-01-18 23:47:00,
2013-01-18 18:52:00,33.6,21.6,30.10,NNW,337,0.0,0.4,61,0.00,,,0.00,WUHU21623XXSP,2013-01-18 23:52:00,
2013-01-18 19:02:00,33.8,21.7,30.10,North,0,0.0,0.0,61,0.00,,,0.00,WUHU21623XXSP,2013-01-19 00:02:00,
2013-01-18 19:07:00,33.8,21.7,30.10,ENE,67,1.6,1.6,61,0.00,,,0.00,WUHU21623XXSP,2013-01-19 00:07:00,
2013-01-18 19:12:00,34.0,21.9,30.10,SW,225,0.0,1.6,61,0.00,,,0.00,WUHU21623XXSP,2013-01-19 00:12:00,
2013-01-18 19:17:00,34.0,21.9,30.10,NNW,337,0.0,0.0,61,0.00,,,0.00,WUHU21623XXSP,2013-01-19 00:17:00,
2013-01-18 19:22:00,34.0,21.9,30.09,NNE,22,0.0,0.0,61,0.00,,,0.00,WUHU21623XXSP,2013-01-19 00:22:00,
2013-01-18 19:27:00,34.3,22.3,30.09,SSW,202,4.0,4.0,61,0.00,,,0.00,WUHU21623XXSP,2013-01-19 00:27:00,
2013-01-18 19:32:00,34.3,22.3,30.09,ESE,112,5.4,5.4,61,0.00,,,0.00,WUHU21623XXSP,2013-01-19 00:32:00,
2013-01-18 19:37:00,34.3,22.3,30.09,NNW,337,6.0,6.0,61,0.00,,,0.00,WUHU21623XXSP,2013-01-19 00:37:00,
2013-01-18 19:42:00,34.3,22.3,30.08,SSE,157,0.0,6.0,61,0.00,,,0.00,WUHU21623XXSP,2013-01-19 00:42:00,
2013-01-18 19:47:00,34.3,22.3,30.08,NW,315,0.0,0.0,61,0.00,,,0.00,WUHU21623XXSP,2013-01-19 00:47:00,
2013-01-18 19:52:00,34.3,22.3,30.08,WSW,247,0.0,0.0,61,0.00,,,0.00,WUHU21623XXSP,2013-01-19 00:52:00,
2013-01-18 19:57:00,34.3,22.3,30.08,SW,225,4.9,4.9,61,0.00,,,0.00,WUHU21623XXSP,2013-01-19 00:57:00,
2013-01-18 20:02:00,34.3,22.3,30.07,SSW,202,2.7,4.9,61,0.00,,,0.00,WUHU21623XXSP,2013-01-19 01:02:00,
2013-01-18 20:07:00,34.3,22.3,30.07,ENE,67,3.8,3.8,61,0.00,,,0.00,WUHU21623XXSP,2013-01-19 01:07:00,
2013-01-18 20:12:00,34.3,22.3,30.07,SW,225,0.9,3.8,61,0.00,,,0.00,WUHU21623XXSP,2013-01-19 01:12:00,
2013-01-18 20:17:00,34.3,22.3,30.07,SW,225,2.0,2.0,61,0.00,,,0.00,WUHU21623XXSP,2013-01-19 01:17:00,
2013-01-18 20:22:00,34.3,22.6,30.06,NE,45,0.0,2.0,62,0.00,,,0.00,WUHU21623XXSP,2013-01-19 01:22:00,
2013-01-18 20:27:00,34.3,22.6,30.06,ENE,67,2.9,2.9,62,0.00,,,0.00,WUHU21623XXSP,2013-01-19 01:27:00,
2013-01-18 20:32:00,34.3,22.3,30.06,East,90,1.3,2.9,61,0.00,,,0.00,WUHU21623XXSP,2013-01-19 01:32:00,
2013-01-18 20:37:00,34.3,22.3,30.05,East,90,1.3,1.3,61,0.00,,,0.00,WUHU21623XXSP,2013-01-19 01:37:00,
2013-01-18 20:42:00,34.5,22.5,30.05,NE,45,6.5,6.5,61,0.00,,,0.00,WUHU21623XXSP,2013-01-19 01:42:00,
2013-01-18 20:47:00,34.7,22.6,30.05,NW,315,0.0,6.5,61,0.00,,,0.00,WUHU21623XXSP,2013-01-19 01:47:00,
2013-01-18 20:52:00,34.9,22.8,30.05,ESE,112,4.7,4.7,61,0.00,,,0.00,WUHU21623XXSP,2013-01-19 01:52:00,
2013-01-18 20:57:00,34.9,22.8,30.04,ENE,67,4.5,4.7,61,0.00,,,0.00,WUHU21623XXSP,2013-01-19 01:57:00,
2013-01-18 21:02:00,34.9,22.8,30.04,West,270,0.0,4.5,61,0.00,,,0.00,WUHU21623XXSP,2013-01-19 02:02:00,
2013-01-18 21:07:00,34.9,22.8,30.04,ESE,112,5.6,5.6,61,0.00,,,0.00,WUHU21623XXSP,2013-01-19 02:07:00,
2013-01-18 21:12:00,34.9,22.8,30.03,NNW,337,4.7,5.6,61,0.00,,,0.00,WUHU21623XXSP,2013-01-19 02:12:00,
2013-01-18 21:17:00,35.2,23.2,30.03,NNW,337,1.3,4.7,61,0.00,,,0.00,WUHU21623XXSP,2013-01-19 02:17:00,
2013-01-18 21:22:00,35.2,23.2,30.03,East,90,3.4,3.4,61,0.00,,,0.00,WUHU21623XXSP,2013-01-19 02:22:00,
2013-01-18 21:27:00,35.2,23.2,30.03,ENE,67,6.0,6.0,61,0.00,,,0.00,WUHU21623XXSP,2013-01-19 02:27:00,
2013-01-18 21:32:00,35.2,23.2,30.02,NNW,337,0.0,6.0,61,0.00,,,0.00,WUHU21623XXSP,2013-01-19 02:32:00,
2013-01-18 21:38:00,35.4,23.4,30.02,NE,45,2.5,2.5,61,0.00,,,0.00,WUHU21623XXSP,2013-01-19 02:38:00,
2013-01-18 21:43:00,35.4,23.4,30.02,SW,225,6.9,6.9,61,0.00,,,0.00,WUHU21623XXSP,2013-01-19 02:43:00,
2013-01-18 21:48:00,35.8,23.7,30.02,ESE,112,3.6,6.9,61,0.00,,,0.00,WUHU21623XXSP,2013-01-19 02:48:00,
2013-01-18 21:53:00,35.8,23.7,30.02,NW,315,7.2,7.2,61,0.00,,,0.00,WUHU21623XXSP,2013-01-19 02:53:00,
2013-01-18 21:58:00,36.0,23.9,30.02,ENE,67,1.1,7.2,61,0.00,,,0.00,WUHU21623XXSP,2013-01-19 02:58:00,
2013-01-18 22:03:00,36.0,23.9,30.02,NNE,22,4.7,4.7,61,0.00,,,0.00,WUHU21623XXSP,2013-01-19 03:03:00,
2013-01-18 22:08:00,36.1,23.7,30.01,ENE,67,8.5,8.5,60,0.00,,,0.00,WUHU21623XXSP,2013-01-19 03:08:00,
2013-01-18 22:13:00,36.3,23.8,30.01,SE,135,0.0,8.5,60,0.00,,,0.00,WUHU21623XXSP,2013-01-19 03:13:00,
2013-01-18 22:18:00,36.3,23.8,30.01,WSW,247,1.6,8.5,60,0.00,,,0.00,WUHU21623XXSP,2013-01-19 03:18:00,
2013-01-18 22:23:00,36.3,23.8,30.01,ENE,67,6.5,6.5,60,0.00,,,0.00,WUHU21623XXSP,2013-01-19 03:23:00,
2013-01-18 22:28:00,36.5,24.0,30.01,NE,45,0.0,6.5,60,0.00,,,0.00,WUHU21623XXSP,2013-01-19 03:28:00,
2013-01-18 22:33:00,36.5,24.0,30.00,East,90,2.5,2.5,60,0.00,,,0.00,WUHU21623XXSP,2013-01-19 03:33:00,
2013-01-18 22:38:00,36.7,24.2,30.01,NE,45,0.0,2.5,60,0.00,,,0.00,WUHU21623XXSP,2013-01-19 03:38:00,
2013-01-18 22:43:00,36.7,23.7,30.00,NW,315,0.0,0.0,59,0.00,,,0.00,WUHU21623XXSP,2013-01-19 03:43:00,
2013-01-18 22:48:00,36.9,23.7,30.00,NW,315,0.0,0.0,59,0.00,,,0.00,WUHU21623XXSP,2013-01-19 03:48:00,
2013-01-18 22:53:00,37.0,24.0,30.01,NE,45,0.0,0.0,59,0.00,,,0.00,WUHU21623XXSP,2013-01-19 03:53:00,
2013-01-18 22:58:00,37.0,24.0,30.01,SW,225,3.6,3.6,59,0.00,,,0.00,WUHU21623XXSP,2013-01-19 03:58:00,
2013-01-18 23:03:00,37.0,24.0,30.01,NW,315,0.0,3.6,59,0.00,,,0.00,WUHU21623XXSP,2013-01-19 04:03:00,
2013-01-18 23:08:00,37.0,24.0,30.01,NE,45,1.6,1.6,59,0.00,,,0.00,WUHU21623XXSP,2013-01-19 04:08:00,
2013-01-18 23:13:00,37.2,24.2,30.01,SSW,202,0.0,1.6,59,0.00,,,0.00,WUHU21623XXSP,2013-01-19 04:13:00,
2013-01-18 23:18:00,37.0,24.2,30.01,SSW,202,0.0,0.0,59,0.00,,,0.00,WUHU21623XXSP,2013-01-19 04:18:00,
2013-01-18 23:23:00,37.0,24.0,30.01,SSE,157,2.5,2.5,59,0.00,,,0.00,WUHU21623XXSP,2013-01-19 04:23:00,
2013-01-18 23:28:00,37.0,24.0,30.00,SW,225,3.4,3.4,59,0.00,,,0.00,WUHU21623XXSP,2013-01-19 04:28:00,
2013-01-18 23:33:00,37.0,24.0,30.01,SW,225,0.2,3.4,59,0.00,,,0.00,WUHU21623XXSP,2013-01-19 04:33:00,
2013-01-18 23:38:00,37.0,24.0,30.00,ESE,112,0.0,0.2,59,0.00,,,0.00,WUHU21623XXSP,2013-01-19 04:38:00,
2013-01-18 23:43:00,37.0,24.0,30.00,ESE,112,4.7,4.7,59,0.00,,,0.00,WUHU21623XXSP,2013-01-19 04:43:00,
2013-01-18 23:48:00,37.0,24.0,30.00,East,90,5.8,5.8,59,0.00,,,0.00,WUHU21623XXSP,2013-01-19 04:48:00,
2013-01-18 23:53:00,37.0,24.0,30.00,South,180,4.5,5.8,59,0.00,,,0.00,WUHU21623XXSP,2013-01-19 04:53:00,
2013-01-18 23:58:00,37.2,24.2,30.00,NNE,22,2.0,4.5,59,0.00,,,0.00,WUHU21623XXSP,2013-01-19 04:58:00,